Location: Charlottesville
(38.0290°N, 78.4770°W)
Time: 15:59:15
(UTC-04:00)

ISS - Pass Details

Date: 13 October 2017
Orbit: 401 x 408 km, 51.6° (Epoch: 21 October)

Event Time Altitude Azimuth Distance (km) Brightness Sun altitude
Rises 20:18:19 0° 308° (NW) 2,325 1.0 -20.4°
Reaches altitude 10° 20:20:24 10° 306° (NW) 1,463 -0.2 -20.8°
Enters shadow 20:23:21 65° 268° (W) 449 -3.5 -21.4°
